Date,TemperatureHighF,TemperatureAvgF,TemperatureLowF,DewpointHighF,DewpointAvgF,DewpointLowF,HumidityHigh,HumidityAvg,HumidityLow,PressureMaxIn,PressureMinIn,WindSpeedMaxMPH,WindSpeedAvgMPH,GustSpeedMaxMPH,PrecipitationSumIn
2013-1-1,45,42,39,38,35,33,81,76,71,30.02,29.47,19,9,55,0.00
2013-1-2,58,53,45,51,47,38,85,83,77,30.23,29.98,25,9,58,0.00
2013-1-3,60,55,50,51,49,45,85,81,74,30.48,30.23,16,6,30,0.00
2013-1-4,60,49,42,51,44,39,93,83,68,30.50,30.39,8,1,19,0.00
2013-1-5,57,51,41,49,45,40,95,82,72,30.39,30.29,30,4,44,0.00
2013-1-6,53,51,46,47,45,41,89,80,65,30.39,30.14,22,2,36,0.00
2013-1-7,60,53,49,52,48,44,92,83,74,30.15,29.95,22,6,38,0.04
2013-1-8,57,50,41,50,44,36,88,81,76,30.21,29.94,19,4,36,0.00
2013-1-9,55,39,32,47,34,28,91,81,65,30.19,29.99,16,1,30,0.00
2013-1-10,46,42,32,43,37,28,90,83,74,29.99,29.86,16,4,30,0.07
2013-1-11,48,42,33,44,38,29,93,85,72,29.99,29.73,19,2,41,0.01
2013-1-12,46,44,40,44,39,32,93,82,70,30.00,29.70,19,6,33,0.02
2013-1-13,41,37,31,38,33,26,90,85,71,30.09,30.00,11,2,25,0.02
2013-1-14,44,41,36,40,36,31,89,83,73,30.02,29.81,25,7,46,0.05
2013-1-15,44,38,35,36,33,30,86,80,72,29.86,29.68,14,4,30,0.00
2013-1-16,43,41,40,40,36,34,90,84,78,29.80,29.65,27,9,55,0.09
2013-1-17,47,44,42,44,42,39,94,91,88,29.80,29.44,46,10,90,0.11
2013-1-18,42,38,35,39,35,32,95,90,87,29.45,29.18,58,28,107,1.26
2013-1-19,40,37,35,38,32,27,94,85,67,29.53,29.23,27,9,49,0.09
2013-1-20,38,37,35,31,28,25,81,69,61,29.52,29.31,27,12,46,0.00
2013-1-21,38,35,32,33,31,29,89,84,70,29.31,29.26,16,1,22,0.19
2013-1-22,36,32,27,33,29,23,90,88,85,29.68,29.31,5,0,8,0.05
2013-1-23,39,36,31,35,32,28,91,85,76,29.79,29.65,22,3,36,0.02
2013-1-24,43,40,37,38,35,31,87,83,77,29.94,29.79,30,6,55,0.00
2013-1-25,48,45,42,45,41,37,92,87,81,29.86,29.28,44,14,93,0.51
2013-1-26,57,47,40,50,41,33,85,78,69,29.65,28.91,33,11,79,0.06
2013-1-27,56,43,38,50,36,32,89,76,64,29.39,28.91,49,16,63,0.20
2013-1-28,52,46,40,45,38,32,83,72,63,29.47,29.04,49,17,82,0.27
2013-1-29,60,50,46,52,43,38,88,76,71,29.40,29.05,38,14,66,0.12
2013-1-30,50,30,45,100,60,34,79,73,57,29.75,29.28,41,14,82,0.08
2013-1-31,600,0,200,100,100,100,74,74,74,29.59,29.47,33,17,66,0.06